Temperature
19 19 19 19 19 19 19 19 19 19 19 19 19 19 19 19 19 19 18 18 18 18 18 18 18 18 18 18 18 18 18 17 17 17 17 17 17 17 17 17 16 16 16
19 19 19 19 19 19 19 19 19 19 19 19 19 19 19 19 19 19 19 19 18 18 18 18 18 18 18 18 18 18 18 18 17 17 17 17 17 17 17 16 16 16 16
19 19 19 19 19 19 19 19 19 19 19 19 19 19 19 19 19 19 19 19 19 18 18 18 18 18 18 18 18 18 18 18 18 17 17 17 17 17 17 16 16 16 16
19 19 19 19 19 19 19 19 19 19 19 19 19 19 19 19 19 19 19 19 19 18 18 18 18 18 18 18 18 18 18 18 17 17 17 17 17 17 17 16 16 16 16
19 19 19 19 19 19 19 19 19 19 19 19 19 19 19 19 19 19 19 19 19 18 18 18 18 18 18 18 18 18 18 17 17 17 17 17 17 17 17 16 16 16 16
19 19 19 19 19 19 19 19 19 19 19 19 19 19 19 19 19 19 19 19 19 18 18 18 18 18 18 18 18 18 17 17 17 17 17 17 17 17 17 17 16 16 16
19 19 19 19 19 19 19 19 19 19 19 19 19 19 19 19 19 19 19 19 19 18 18 18 18 18 18 18 18 17 17 17 17 17 17 17 17 17 17 17 16 16 16
19 19 19 19 19 19 19 19 19 19 19 19 18 18 18 18 19 19 19 19 18 18 18 18 18 18 18 18 18 17 17 17 17 17 17 17 17 17 16 16 16 16 16
19 19 19 19 19 19 19 19 19 19 18 18 18 18 18 18 18 18 18 18 18 18 18 18 18 18 18 18 18 17 17 17 17 17 17 17 17 17 16 16 16 16 16
19 19 19 19 19 19 19 19 19 18 18 18 18 18 18 18 18 18 18 18 18 18 18 18 18 18 18 17 17 17 17 17 17 17 17 17 16 16 16 16 16 16 16
19 19 19 19 19 19 19 19 19 18 18 18 18 18 18 18 18 18 17 18 18 18 18 17 17 17 17 17 17 17 17 17 17 17 17 16 16 16 16 16 16 16 16
19 19 19 19 19 19 19 19 18 18 18 18 18 18 18 18 18 17 17 17 17 17 17 17 17 17 17 17 17 17 17 17 16 16 16 16 16 16 16 16 16 16 16
19 19 18 19 19 18 18 18 18 18 18 18 18 18 17 17 17 17 17 17 17 17 17 17 17 17 16 16 16 16 16 16 16 16 16 16 16 16 16 16 16 16 15
19 18 18 18 18 18 18 18 18 18 18 17 17 17 17 17 17 17 17 17 16 16 17 17 16 16 16 16 16 16 16 16 16 16 16 15 15 16 16 16 15 15 15
18 18 18 18 18 18 18 18 18 18 18 17 17 17 17 17 17 17 17 17 16 16 16 16 16 16 16 16 16 16 16 16 15 15 15 15 15 15 15 15 15 15 15
18 18 18 18 18 18 18 18 18 17 17 17 17 17 17 17 17 17 17 16 16 16 16 16 16 16 16 16 16 15 15 15 15 15 15 15 15 15 15 15 15 15 15
18 18 18 18 18 18 17 17 17 17 17 17 17 17 17 16 16 16 16 16 16 16 16 15 15 15 15 15 15 15 15 15 15 15 15 15 15 15 15 15 15 14 14
18 18 17 17 17 17 17 17 17 17 17 16 16 16 16 16 16 16 16 16 16 16 15 15 15 15 15 15 15 15 14 14 14 15 15 15 15 15 14 14 14 14 14
18 17 17 17 17 17 17 17 17 17 16 16 16 16 16 16 16 15 16 15 15 15 15 15 15 15 15 14 14 14 14 14 14 14 14 14 14 14 14 14 14 14 14
17 17 17 17 17 17 16 16 16 16 16 16 16 16 16 15 15 15 15 15 15 15 15 14 14 14 14 14 14 14 14 14 14 14 14 14 14 14 14 14 14 14 14
17 17 16 16 16 16 16 16 16 16 16 16 16 15 15 15 15 15 15 15 14 14 14 14 14 14 14 13 13 13 13 13 13 13 13 13 13 13 13 13 13 13 13
17 16 16 16 16 16 16 16 15 15 15 15 15 15 15 15 15 15 14 14 14 14 14 14 13 13 13 13 13 13 13 13 13 13 13 13 13 13 13 13 13 13 13
16 16 16 16 16 16 15 15 15 15 15 15 15 15 15 15 14 14 14 14 14 14 13 13 13 13 13 13 13 13 12 12 12 12 12 12 12 12 12 12 12 12 12
16 16 16 15 15 15 15 15 15 14 14 14 14 14 14 14 14 14 14 14 14 13 13 13 13 13 13 12 12 12 12 12 12 12 12 12 12 12 12 12 12 12 12
15 15 15 15 15 15 14 14 14 14 14 14 14 14 14 14 14 13 13 13 13 13 13 13 13 12 12 12 12 12 12 12 12 12 11 11 11 11 11 11 11 11 12
15 15 15 15 14 14 14 14 14 14 14 14 14 14 13 13 13 13 13 13 13 13 13 13 12 12 12 12 12 12 12 11 11 11 11 11 11 11 11 11 11 11 11
Wind_Speed
2 2 2 2 3 4 3 3 3 4 4 5 5 5 5 6 7 7 7 10 11 11 12 12 13 12 11 11 11 12 12 13 13 14 14 15 15 15 15 14 14 14 14
3 2 2 2 2 3 3 3 3 3 3 3 3 4 5 5 6 7 7 8 10 11 11 12 13 12 11 11 12 12 12 13 13 14 15 15 15 15 15 15 14 14 14
3 2 2 2 2 3 2 2 2 2 2 2 3 3 3 4 5 6 7 6 7 8 10 12 12 12 11 11 12 12 12 12 12 13 14 14 15 15 15 14 14 15 15
3 2 2 2 2 2 1 1 1 1 1 2 2 3 3 3 4 5 5 5 6 6 7 10 11 11 11 11 11 11 11 12 11 11 12 13 14 15 14 14 15 15 15
3 2 2 2 2 0 0 1 1 1 2 2 3 3 3 3 3 4 3 4 6 6 6 8 10 10 11 10 11 10 10 11 11 11 11 11 12 13 13 14 14 14 14
2 2 1 1 1 0 0 0 1 1 1 2 2 2 2 3 3 3 4 3 4 6 6 6 6 8 10 10 9 9 9 10 11 11 11 11 11 12 13 13 13 14 14
2 2 1 0 1 1 1 1 1 1 1 1 1 2 3 2 2 2 2 2 3 4 5 5 5 5 5 8 9 8 8 9 10 10 10 11 11 12 12 12 13 13 14
2 2 1 1 0 1 0 0 0 0 1 0 1 0 2 3 2 2 2 2 3 2 3 4 4 4 4 4 5 7 7 8 9 9 10 10 11 11 11 11 12 12 13
1 1 2 1 1 1 1 1 0 1 1 1 1 2 2 2 2 2 2 2 2 1 2 2 3 5 5 5 5 5 6 7 8 9 9 9 10 10 10 11 11 12 13
1 1 1 1 1 0 0 1 0 1 1 2 2 1 2 3 2 2 3 2 2 2 2 2 2 3 4 5 5 5 6 7 7 8 8 9 10 10 10 11 11 11 12
1 0 1 1 0 0 1 1 0 0 1 2 2 1 1 0 1 2 3 3 3 2 2 2 1 1 3 4 4 5 6 7 6 6 7 8 9 10 10 10 10 11 11
1 1 1 1 0 0 1 1 1 0 1 1 1 1 1 1 1 2 2 2 3 3 2 1 0 0 2 3 3 4 6 6 6 6 6 7 7 8 9 9 9 9 10
1 2 1 1 1 1 1 0 0 1 1 0 1 1 1 2 2 2 2 1 2 2 2 1 1 1 2 3 3 4 4 6 7 7 7 7 7 7 7 9 9 9 9
2 2 1 1 1 1 1 0 0 1 1 1 1 1 1 1 1 2 2 2 1 2 2 3 2 1 2 3 4 4 3 5 6 6 7 7 8 8 7 8 8 8 8
1 1 1 1 1 1 1 0 1 1 1 1 1 1 1 2 1 1 2 3 3 2 2 3 2 2 2 3 4 3 3 4 5 6 7 7 8 8 7 8 8 7 8
1 1 1 1 1 1 1 1 1 1 1 2 1 1 1 2 2 1 1 2 3 4 3 3 3 3 2 2 3 3 4 5 6 6 6 7 8 7 7 7 7 7 7
1 1 1 1 1 1 1 0 1 1 1 2 2 1 2 2 2 2 1 1 1 2 3 3 2 2 1 2 3 3 3 4 4 6 6 6 6 7 7 8 7 7 7
1 1 1 1 1 1 1 1 2 1 1 1 2 2 3 2 2 2 1 1 1 1 2 2 2 2 2 2 2 2 3 3 3 5 6 6 6 7 7 7 7 7 7
0 1 1 1 1 1 1 1 1 1 2 2 2 2 3 2 2 2 2 1 1 1 1 2 2 2 2 2 2 2 2 2 3 4 4 5 6 6 6 6 6 7 7
2 1 1 1 1 1 1 1 1 2 2 2 2 2 2 2 3 2 2 1 1 1 1 1 2 2 2 2 1 2 3 3 3 3 3 3 4 4 5 5 5 5 6
2 2 1 1 1 1 2 1 2 2 2 2 2 2 2 2 2 1 1 2 1 1 1 1 1 2 2 1 2 2 2 3 3 2 2 2 2 2 4 4 4 4 4
2 1 1 1 1 2 2 2 1 1 1 2 2 3 3 3 3 2 2 1 1 2 2 2 2 2 3 2 1 1 1 1 2 2 1 2 1 2 3 2 3 4 4
2 2 2 1 2 2 2 1 1 1 1 2 2 2 2 3 2 2 3 3 3 3 3 3 3 3 3 3 2 2 2 2 3 3 0 2 2 2 3 3 4 3 3
2 3 3 2 1 3 2 1 1 1 2 2 2 2 2 2 2 1 2 2 3 3 3 2 3 4 3 3 3 4 4 2 2 2 1 1 2 2 3 3 4 4 4
2 2 2 2 2 3 3 2 1 1 1 2 2 2 2 2 3 2 1 2 4 4 4 4 3 3 2 2 1 1 1 1 1 2 1 1 1 2 2 2 3 4 5
3 2 2 2 3 3 4 3 2 1 1 2 3 3 3 3 4 3 2 2 3 4 3 3 3 3 2 2 1 3 3 2 1 2 2 1 1 1 2 2 2 3 3
Wind_Direction
189 199 215 223 226 226 223 224 234 239 243 240 237 228 228 221 213 213 219 227 229 230 226 223 224 226 225 225 225 226 229 229 227 228 229 230 234 234 234 233 231 232 235
188 193 211 225 233 228 226 216 224 229 232 232 236 230 222 211 211 213 214 221 226 229 227 223 225 226 229 229 230 232 234 235 233 232 233 232 233 236 236 235 234 234 235
187 191 207 230 240 236 232 222 231 233 237 244 247 239 223 216 212 216 216 218 225 233 232 226 223 227 230 232 234 232 232 234 234 233 232 231 232 235 237 236 238 237 236
194 187 196 234 247 244 230 209 204 235 259 259 256 251 236 225 221 218 215 217 220 227 233 234 228 229 233 238 235 232 231 230 230 231 230 231 234 234 235 237 241 240 237
195 184 200 231 238 233 229 232 196 202 244 274 265 253 241 227 224 227 223 223 221 219 220 232 228 230 236 240 237 237 235 232 231 233 232 232 234 234 234 237 239 239 236
191 178 194 238 230 166 315 261 234 246 240 261 279 290 261 242 229 231 231 230 225 221 219 227 226 234 236 237 238 238 238 237 234 233 234 235 235 234 236 237 238 235 234
188 171 174 224 228 183 218 227 204 268 284 292 18 342 331 299 241 236 238 229 240 229 213 217 216 218 229 233 233 237 243 244 240 234 234 237 238 237 237 236 235 235 235
197 177 164 198 199 151 357 358 119 254 306 75 140 66 345 339 321 264 262 236 245 245 229 216 205 212 218 221 224 230 239 246 243 237 235 236 236 237 238 238 238 239 236
194 177 158 153 136 151 226 270 174 163 259 294 186 157 170 247 297 311 284 261 256 241 247 228 206 215 214 210 218 227 235 244 243 239 238 237 236 237 238 241 242 241 239
176 167 152 149 153 155 219 263 169 206 191 263 283 238 202 185 195 293 314 304 287 256 254 251 237 216 209 206 212 217 225 239 241 243 243 242 240 239 240 243 245 245 241
258 189 137 132 183 208 245 286 311 224 187 208 230 249 263 300 187 190 276 305 318 295 269 251 262 232 214 213 216 224 225 233 239 242 247 247 244 244 245 246 248 250 248
290 292 178 183 212 239 282 270 269 249 210 194 200 185 190 205 226 195 228 274 290 290 294 267 222 166 220 226 233 232 228 230 238 241 246 249 248 247 248 248 251 255 254
268 261 244 214 223 244 251 300 333 310 281 234 202 222 226 235 211 189 186 239 276 295 314 314 259 222 217 221 241 253 241 239 242 243 245 246 248 250 252 249 250 254 258
220 228 226 214 213 234 269 230 308 305 324 289 291 250 244 263 224 197 187 182 261 310 320 293 291 262 238 224 240 257 265 263 255 249 246 248 252 253 255 253 252 253 260
209 206 214 202 217 234 254 218 254 280 307 297 295 298 292 281 272 243 200 178 175 224 275 277 280 276 262 244 252 251 252 265 258 251 246 250 253 252 251 251 251 253 258
228 198 182 198 231 259 274 242 275 285 320 318 320 333 312 293 302 291 233 208 184 184 226 256 258 273 285 289 285 266 257 266 258 254 246 249 246 244 248 251 253 253 253
198 185 207 202 216 248 268 256 279 294 312 319 319 305 290 283 299 295 275 223 198 175 209 267 274 292 303 299 313 303 285 276 272 260 257 254 247 247 251 253 253 252 251
214 184 166 178 249 278 279 245 274 291 283 291 296 307 303 308 306 293 279 258 243 212 190 248 290 304 287 281 293 299 304 296 286 279 274 268 261 255 255 252 252 248 247
180 177 148 161 258 282 279 268 256 276 273 267 266 270 283 291 294 298 290 262 250 259 188 210 274 289 286 294 315 313 309 301 296 293 288 280 275 270 264 258 254 247 246
159 175 195 229 247 260 267 275 269 269 283 284 277 271 280 269 259 266 275 261 235 218 244 235 275 292 289 294 316 308 319 314 303 306 312 298 304 303 288 284 273 256 246
184 193 200 267 278 270 284 286 268 267 282 295 306 303 301 313 294 258 259 247 217 195 215 248 274 297 298 309 294 276 288 304 304 307 327 321 326 330 313 296 286 266 252
194 185 207 233 266 285 317 324 322 293 277 275 287 291 299 311 325 316 304 271 198 196 207 211 235 255 257 253 255 271 270 324 304 304 328 303 319 293 290 283 292 284 271
194 202 221 228 263 292 321 339 1 259 251 256 257 272 295 315 336 331 329 332 298 261 204 192 212 236 239 237 217 230 226 229 247 260 316 294 313 297 295 291 294 298 288
214 216 220 232 268 307 322 301 291 267 261 274 261 246 260 287 310 324 313 316 303 294 269 224 219 235 235 224 208 211 217 243 276 278 124 247 296 296 306 309 302 307 300
237 230 204 203 241 279 285 260 242 271 291 292 283 265 247 261 284 271 260 293 304 303 299 298 283 263 276 268 184 117 87 99 303 279 258 171 268 314 316 308 315 317 305
230 233 232 231 234 258 272 256 215 197 275 289 298 291 281 286 290 257 217 233 272 282 299 315 319 315 303 294 236 173 176 173 201 262 259 187 274 3 330 307 308 316 322
Height
1529 1529 1529 1529 1529 1529 1529 1529 1529 1529 1528 1528 1527 1527 1527 1527 1527 1527 1527 1526 1526 1525 1525 1525 1525 1525 1525 1525 1525 1525 1525 1525 1525 1525 1526 1526 1527 1528 1528 1529 1530 1531 1532
1529 1529 1529 1529 1529 1529 1528 1528 1528 1528 1527 1527 1526 1526 1526 1526 1526 1526 1525 1525 1524 1524 1523 1523 1523 1523 1523 1523 1523 1522 1522 1522 1522 1522 1522 1523 1524 1524 1525 1526 1527 1528 1529
1529 1529 1528 1528 1528 1528 1528 1527 1527 1527 1526 1525 1525 1525 1525 1525 1525 1524 1524 1524 1523 1522 1522 1522 1522 1521 1521 1521 1520 1520 1520 1519 1519 1519 1519 1520 1520 1521 1522 1522 1523 1524 1525
1528 1528 1528 1527 1527 1527 1527 1526 1526 1525 1525 1524 1524 1523 1523 1523 1523 1523 1523 1522 1521 1521 1520 1520 1520 1519 1519 1519 1518 1518 1518 1517 1517 1517 1517 1517 1517 1517 1518 1519 1520 1521 1522
1528 1527 1527 1527 1526 1526 1526 1525 1525 1524 1524 1523 1522 1522 1522 1522 1521 1521 1521 1520 1520 1519 1519 1518 1518 1518 1517 1517 1516 1516 1515 1515 1514 1514 1514 1514 1514 1514 1515 1516 1517 1517 1518
1527 1527 1526 1526 1525 1525 1524 1524 1524 1523 1523 1522 1521 1521 1520 1520 1520 1520 1519 1519 1518 1518 1517 1515 1516 1516 1515 1515 1514 1514 1513 1513 1512 1512 1511 1511 1511 1512 1512 1513 1513 1514 1515
1526 1526 1525 1525 1524 1524 1523 1523 1522 1522 1522 1521 1521 1520 1519 1519 1518 1518 1518 1517 1516 1516 1515 1515 1514 1514 1514 1513 1512 1512 1511 1510 1510 1509 1509 1509 1509 1509 1509 1510 1510 1511 1511
1525 1525 1524 1524 1523 1523 1522 1522 1522 1521 1520 1520 1519 1519 1518 1518 1517 1516 1516 1515 1515 1514 1513 1513 1513 1512 1511 1511 1510 1510 1509 1508 1508 1507 1506 1506 1506 1506 1507 1507 1507 1508 1508
1524 1524 1523 1523 1522 1522 1521 1521 1521 1520 1519 1519 1518 1518 1517 1516 1515 1515 1514 1513 1513 1512 1511 1511 1510 1510 1509 1508 1508 1507 1507 1505 1505 1505 1504 1503 1503 1504 1504 1504 1504 1504 1504
1523 1523 1522 1522 1522 1521 1520 1520 1519 1518 1518 1517 1517 1516 1516 1515 1514 1512 1512 1512 1511 1510 1509 1509 1508 1508 1507 1506 1505 1505 1504 1502 1502 1502 1501 1500 1500 1501 1501 1501 1501 1501 1501
1522 1522 1522 1521 1520 1520 1519 1518 1517 1517 1516 1515 1514 1514 1514 1513 1512 1511 1510 1509 1509 1508 1508 1507 1506 1505 1504 1503 1503 1502 1501 1500 1500 1499 1498 1498 1498 1497 1497 1497 1497 1497 1497
1521 1521 1520 1520 1519 1518 1517 1516 1516 1515 1514 1513 1512 1512 1511 1511 1510 1509 1508 1507 1506 1506 1505 1504 1504 1503 1502 1501 1500 1500 1499 1498 1497 1496 1496 1495 1495 1494 1494 1494 1494 1494 1494
1519 1519 1519 1518 1517 1516 1516 1515 1514 1513 1512 1511 1511 1510 1509 1509 1508 1507 1506 1505 1504 1503 1503 1502 1502 1501 1500 1499 1498 1498 1496 1495 1494 1494 1493 1493 1492 1492 1491 1491 1491 1491 1490
1518 1517 1517 1516 1515 1515 1514 1513 1512 1512 1510 1510 1509 1508 1507 1506 1506 1505 1504 1503 1502 1501 1500 1500 1499 1499 1498 1497 1496 1495 1494 1493 1492 1491 1491 1490 1490 1489 1488 1488 1488 1487 1487
1516 1516 1515 1514 1514 1513 1512 1511 1510 1510 1509 1508 1507 1506 1505 1504 1503 1503 1502 1501 1501 1499 1498 1497 1497 1496 1496 1495 1494 1492 1491 1490 1490 1489 1489 1488 1487 1486 1486 1485 1484 1484 1483
1514 1514 1513 1512 1512 1511 1511 1510 1509 1508 1507 1506 1505 1504 1503 1502 1501 1500 1499 1498 1497 1497 1495 1495 1494 1494 1493 1492 1491 1490 1489 1488 1487 1487 1486 1485 1484 1483 1483 1482 1481 1481 1480
1512 1512 1511 1511 1510 1509 1508 1508 1507 1506 1505 1504 1503 1502 1501 1500 1499 1498 1497 1496 1495 1494 1493 1492 1492 1491 1490 1489 1488 1487 1486 1485 1484 1484 1483 1482 1481 1480 1480 1479 1478 1477 1477
1510 1509 1509 1509 1508 1507 1506 1505 1504 1503 1502 1501 1500 1500 1499 1498 1496 1496 1494 1493 1492 1492 1491 1489 1489 1488 1487 1486 1485 1484 1484 1483 1482 1481 1480 1479 1478 1478 1477 1476 1475 1474 1474
1507 1507 1507 1506 1505 1504 1503 1502 1501 1501 1500 1499 1498 1497 1496 1495 1494 1493 1492 1491 1490 1490 1488 1487 1486 1485 1484 1483 1482 1482 1481 1480 1479 1478 1477 1476 1475 1475 1474 1473 1473 1472 1471
1505 1505 1504 1503 1503 1502 1500 1499 1498 1498 1497 1496 1495 1494 1493 1492 1491 1490 1490 1489 1488 1487 1486 1485 1483 1482 1481 1481 1480 1479 1478 1477 1476 1475 1474 1473 1472 1472 1471 1471 1470 1469 1469
1503 1502 1502 1501 1500 1499 1497 1496 1495 1495 1494 1493 1492 1491 1490 1489 1488 1487 1487 1486 1485 1484 1483 1482 1481 1479 1479 1478 1477 1476 1475 1474 1473 1472 1472 1471 1470 1469 1468 1468 1467 1467 1466
1500 1500 1499 1498 1497 1496 1495 1494 1493 1492 1491 1490 1489 1488 1488 1487 1486 1485 1484 1484 1483 1482 1480 1479 1478 1477 1476 1475 1474 1473 1473 1472 1470 1470 1469 1468 1468 1467 1466 1465 1464 1464 1464
1498 1497 1496 1495 1494 1493 1492 1491 1490 1488 1487 1487 1486 1485 1485 1484 1483 1482 1481 1481 1480 1479 1478 1477 1476 1474 1474 1473 1471 1470 1470 1470 1468 1468 1467 1465 1465 1464 1463 1462 1462 1462 1461
1495 1494 1493 1493 1491 1490 1489 1488 1487 1486 1484 1483 1483 1482 1481 1480 1480 1479 1479 1478 1477 1477 1476 1474 1473 1472 1471 1470 1469 1469 1468 1467 1467 1466 1465 1463 1462 1461 1461 1460 1459 1459 1459
1492 1491 1490 1489 1488 1487 1486 1485 1483 1482 1480 1480 1480 1479 1478 1477 1477 1476 1475 1475 1474 1474 1473 1472 1471 1470 1469 1468 1467 1466 1465 1464 1463 1463 1463 1461 1460 1459 1458 1457 1457 1457 1456
1488 1488 1487 1486 1485 1484 1483 1482 1480 1478 1477 1477 1477 1476 1476 1475 1474 1473 1472 1471 1471 1470 1470 1469 1468 1468 1466 1465 1464 1464 1463 1462 1461 1460 1460 1459 1458 1457 1456 1455 1455 1454 1453